Regional Weather Roundup
Issued by NWS Newport/Morehead, NC

Current Version | Previous Version | Text Only | Print | Product List | Glossary Off
Versions: 1 2 3 4 5 6 7 8 9 10 11 12 13 14 15 16 17 18 19 20 21 22 23 24 25 26 27 28 29 30 31 32 33 34 35 36 37 38 39 40 41 42 43 44 45 46 47 48 49 50
000 ASUS42 KMHX 221210 RWRMHX WEATHER ROUNDUP FOR EASTERN NORTH CAROLINA NATIONAL WEATHER SERVICE NEWPORT/MOREHEAD CITY NC 700 AM EST MON DEC 22 2014 NOTE: "FAIR" INDICATES FEW OR NO CLOUDS BELOW 12,000 FEET WITH NO SIGNIFICANT WEATHER AND/OR OBSTRUCTIONS TO VISIBILITY NCZ015>017-031-032-045>047-102-103-221300- NORTH COAST CITY SKY/WX TMP DP RH WIND PRES REMARKS EDENTON RAIN 42 41 96 NE10G20 30.12F ELIZABETH CITY HVY RAIN 48 43 82 NE17G24 30.14F KITTY HAWK LGT RAIN 49 48 97 NE9G16 30.11S MANTEO CLOUDY 50 48 95 NE16 30.12S $$ NCZ045>047-081-094-103-104-221300- CENTRAL COAST CITY SKY/WX TMP DP RH WIND PRES REMARKS FRISCO CLOUDY 58 58 100 E7 30.06S SWANQUARTER N/A 48 N/A N/A NE13G20 30.06R $$ NCZ095-097-098-100-101-221300- SOUTHERN COAST CITY SKY/WX TMP DP RH WIND PRES REMARKS BEAUFORT CLOUDY 50 50 100 NE13G23 30.05F FOG CEDAR ISLAND N/A 50 N/A N/A N10G18 30.09S JACKSONVILLE CLOUDY 45 44 97 N9 30.06F FOG PINEY ISLAND CLOUDY N/A N/A N/A MISG 30.06S WILMINGTON CLOUDY 45 44 97 N9 30.05S FOG $$ NCZ011>013-027>030-043-044-078>080-089-090>093-098-221300- COASTAL PLAIN CITY SKY/WX TMP DP RH WIND PRES REMARKS AHOSKIE MIX PCPN 38 37 94 N9G16 30.16F CLINTON DRIZZLE 40 40 100 N5 30.13S ELIZABETHTOWN HVY RAIN 40 40 100 N3 30.09F GOLDSBORO LGT RAIN 40 40 99 N9 30.10R GREENVILLE LGT RAIN 41 39 93 NE9 30.13F HAVELOCK CLOUDY 49 47 93 NE12 30.08S FOG KENANSVILLE LGT RAIN 40 40 98 NW7 30.12R KINSTON LGT RAIN 41 39 93 N9 30.12R NEW BERN LGT RAIN 49 45 86 NE9 30.09S FOG RICHLANDS CLOUDY 43 39 87 NE10 30.07F ROCKY MOUNT HVY RAIN 38 36 92 N10 30.15R FOG WASHINGTON CLOUDY 42 41 95 N7 30.13R WHITEVILLE RAIN 42 41 95 NE6 30.09R $$ AMZ130-135-150-152-154-156-158-170-250-252-270-ANZ085-086-088-633-658-670-221300- MARINE OBSERVATIONS STATION/POSITION TIME TEMP WIND PRES WAVE SWELL AIR SEA DIR/SP/G HT/PER HT/PER (UTC) (F) (DEG/KT/KT) (MB) (FT/S) (FT/S) CHESAPEAKE LIGHT 1100 46 40/ 21/ 23 1023.2 64 E VA BEACH 1200 54 53 50/ 21/ 25 1020.4 5/ 5 2/10 DUCK 1200 48 46 30/ 22/ 25 1019.8 2 E DUCK 1200 46 N/A 6/ 6 10 NE DUCK 1200 52 N/A 6/ 6 OREGON INLET 1200 51 48 40/ 12/ 15 1019.0 13E OREGON INLT 1200 52 N/A 5/ 6 HATTERAS CG 1200 58 49 80/ 9/ 12 1018.2 DIAMOND BUOY 1200 65 1017.2 8/ 8 17 S OCRACOKE NOT AVBL CAPE LOOKOUT 1100 50 10/ 14/ 17 1016.9 BEAUFORT LAB 1200 50 50 30/ 10/ 15 1016.5 30 SE NEW RIVER 1200 57 60 40/ 16/ 19 1016.1 8/ 7 3/ 8 5 SE WRIGHTSVLE NOT AVBL 225 S CAPE HAT 1108 70 72 280/ 10/ 12 1018.3 5/ 7 5/ 7 41 SE CHARLESTON 1200 66 73 10/ 12/ 14 1015.6 6/ 8 5/ 8 $$

USA.gov is the U.S. government's official web portal to all federal, state and local government web resources and services.